Showing default

TJS-20, 66142

Orbit data source: Space-Track

TJS-20, 66142 is a Chinese payload satellite in HEO that was launched on Thu, 23 Oct 2025 UTC via a CHANG ZHENG 5 launch vehicle from the Wenchang Satellite Launch Center (WSC). Payload-class satellites include a variety of spacecraft equipped with specific instruments for various scientific and technological missions. These include communications satellites like Starlink; space stations such as the ISS; scientific satellites like the Hubble; Earth observation satellites from companies like Planet Labs, Umbra, and HawkEye 360; GPS; miniature CubeSats for education and research; and military/defense satellites.

Loading next visibility...
Identifier
66142, 2025-238A
Orbit
HEO
Country
Flag of CNCN / PRC
Related business
Manufacturer
CAST
Mission
Operational spacecraft
Bus & Motor
TJS11, Unknown motor
Mass
~10,000 kg wet, ~6,000 kg dry
Launch date (UTC)
2025-10-23 (1 week ago)
Launch vehicle
CHANG ZHENG 5
Launch site
Wenchang Satellite Launch Center (WSC)
Object type
Payload
Rocket body
Debris
Shape & HBR
Unknown
Radar Cross Section
RCS unknown

Expand to show TLE details & history
Last TLE update: 1 week ago

TLE from 1 week ago
0 TJS-20
1 66142U 25238A   25297.02128061  .00007775  15255-5  89266-3 0  9997
2 66142  16.4249 273.2021 7763057 165.3209 248.2978  1.72601617    28
Epoch: 2025-10-24T00:30Z
TLE epoch observation values (Epoch: 2025-10-24T00:30:38.644Z)
Latitude
0.00006°
Longitude
-127.21006°
Altitude
40,434.952 km
Speed
1.858 km/s
True Right ascension
18h 12m 29s
True Declination
0° 00' 00"
Sunlit
Object was in daylight at epoch
Visualization orbit readout
Latitude
Unknown
Longitude
Unknown
Altitude
Unknown
Speed
Unknown
Apparent Right ascension
Unknown
Apparent Declination
Unknown
Sunlit
N/A
Visualization observer readout
Local Sidereal Time
15:45:57
Azimuth
Unknown
Elevation
Unknown
Doppler factor
Unknown
Orbital elements
Apogee altitude
45,777.497 km
Perigee altitude
189.943 km
Semi-major axis
29,361.857 km
Eccentricity
0.77631
Inclination
16.4249°
RAAN
273.2021°
Arg. of periapsis
165.3209°
True anomaly
194.64687°
Mean anomaly
248.2978°
Eccentric anomaly
219.8165°
Mean motion
0.43139 °/min
Orbital period
834.52 mins
BSTAR
0.00089266
Loading maneuver chart data...
Computing Atmospheric mass density...
Loading historical data...
Loading historical data...
Loading historical data...
Loading historical data...
Loading historical data...
Loading historical data...
Loading historical data...
Other satellites on launch #238 in the year 2025 (2025-10-23 UTC)

Documentation

Showing up to 5 results
|